Location: Marcé
(47.5801°N, 0.3280°W)
Time: 07:06:40
(UTC+01:00)

Vanguard 1 Rocket - Pass Details

Date: 08 December 2021
Orbit: 651 x 4224 km, 34.3° (Epoch: 23 January)

Event Time Altitude Azimuth Distance (km) Brightness Sun altitude
Exits shadow 07:13:33 10° 263° (W) 5,006 10.6 -13.3°
Reaches altitude 10° 07:13:41 10° 263° (W) 4,987 10.6 -13.3°
Maximum altitude 07:27:48 40° 201° (SSW) 4,371 10.8 -11.1°
Drops below altitude 10° 07:49:24 10° 142° (SE) 7,400 13.2 -7.7°
Sets 07:56:00 0° 136° (SE) 8,450 13.9 -6.7°
